Regional Weather Roundup
Issued by NWS Midland/Odessa, TX

Skip options and go directly to product.
Home | Oldest Version | Previous Version | Current Version | All | Text Only | Save Text | Print | Product List | Glossary On

Skip product version selection by date and time.   
258
ASUS44 KMAF 222110
RWRMAF
MIDLAND AREA WEATHER ROUNDUP
NATIONAL WEATHER SERVICE MIDLAND TX
400 PM CDT TUE JUL 22 2014

...IN SOUTHWEST TEXAS AND SOUTHEAST NEW MEXICO...

CITY           SKY/WX    TMP DP  RH WIND       PRES   REMARKS
ALPINE         MOSUNNY   91  58  33 E7        30.22F
ANDREWS        NOT AVBL
ARTESIA        SUNNY     97  55  24 S15G21    30.12F
BIG SPRING       N/A     98  60  28 E10       30.12F
CARLSBAD       MOSUNNY   99  53  21 SE17G23   30.08F
DRYDEN           N/A    101  62  27 E16G22    30.03F HX 102
FORT STOCKTON  MOSUNNY   94  58  29 E14       30.09F
GUAD PASS      SUNNY     87  55  33 E29       30.26F
HOBBS          MOSUNNY   93  50  22 E12G21    30.17F
MARFA          PTSUNNY   90  57  33 S7        30.22F
MIDLAND AIRPK  MOSUNNY   97  59  28 E6G20     30.11F
MIDLAND INTL   MOSUNNY   97  56  25 SE9G17    30.10F
ODESSA         MOSUNNY   96  55  25 SE14      30.12F
PECOS          MOSUNNY  100  57  23 E20G26    30.04F
PRESIDIO       FAIR     102  55  21 NE6       30.01F HX 100
SEMINOLE       MOSUNNY   98  50  19 E16       30.15S
SNYDER         MOSUNNY   97  63  32 E14       30.10F
WINK           MOSUNNY  100  54  21 SE14G21   30.05F
$$
...OTHER STATIONS IN TEXAS...

CITY           SKY/WX    TMP DP  RH WIND       PRES   REMARKS
ABILENE        MOSUNNY   95  68  41 VRB5      30.08F
AMARILLO       SUNNY     91  68  46 SE14      30.18F
AUSTIN         MOSUNNY   95  68  41 S5        30.00F
BROWNSVILLE    MOSUNNY   95  75  52 SE13G24   29.97F HX 107
CORPUS CHRISTI PTSUNNY   95  74  50 SE12G23   29.97F HX 105
DALLAS FTW     PTSUNNY   98  68  37 VRB5      30.03S HX 103
DEL RIO        SUNNY     98  67  36 E13       29.98F HX 102
EL PASO        MOSUNNY   99  53  21 CALM      30.08F
HOUSTON INT    PTSUNNY   96  73  47 VRB3      30.00F HX 105
LUBBOCK        MOSUNNY   95  62  33 SE18G24   30.14F
SAN ANGELO     MOSUNNY   97  63  32 SE8       30.05F
SAN ANTONIO    PTSUNNY   94  65  38 VRB5      30.02F
WACO           MOSUNNY   97  68  38 S5        30.01F HX 102
WICHITA FALLS  NOT AVBL
$$
...OTHER LOCATIONS IN NEW MEXICO...

CITY           SKY/WX    TMP DP  RH WIND       PRES   REMARKS
ALAMAGORDO     PTSUNNY   82  55  39 SE7       30.15F
ALBUQUERQUE    MOSUNNY   95  47  19 W7        30.23F
CANNON AFB     SUNNY     88  62  41 SE6       30.22F
CLOVIS         NOT AVBL
HOLLOMAN AFB   PTSUNNY   90  54  28 E14G22    30.12F
ROSWELL        SUNNY     96  61  31 SE15G24   30.13F
RUIDOSO        CLOUDY    63  57  82 MISG      30.41R THUNDER
SANTA FE       PTSUNNY   90  45  21 E20G28    30.32F
TRUTH OR CONSE SUNNY     98  43  15 VRB7      30.14F
TUCUMCARI      SUNNY     95  61  32 VRB6      30.16F
$$

USA.gov is the U.S. government's official web portal to all federal, state and local government web resources and services.